Location: NJAA Observatory
(40.6819°N, 74.8979°W)
Time: 09:51:22
(UTC-04:00)

Cosmos 1328 Rocket - Visible Passes

Search period start: 21 June 2018 00:00
Search period end: 01 July 2018 00:00
Orbit: 601 x 628 km, 82.5° (Epoch: 21 June)

Date Brightness Start Highest point End Pass type
(mag) Time Alt. Az. Time Alt. Az. Time Alt. Az.
21 Jun 3.8 00:06:22 10° N 00:10:23 59° ENE 00:10:23 59° ENE visible
21 Jun 6.1 01:46:53 10° WNW 01:47:27 11° WNW 01:47:27 11° WNW visible
22 Jun 3.7 00:22:14 10° NNW 00:26:12 67° NW 00:26:12 67° NW visible
22 Jun 5.4 23:01:31 10° NNE 23:04:28 18° ENE 23:04:58 17° E visible
23 Jun 4.6 00:38:21 10° NNW 00:42:01 37° W 00:42:01 37° W visible
23 Jun 4.6 23:16:41 10° NNE 23:20:33 30° ENE 23:20:48 30° E visible
24 Jun 5.4 00:54:49 10° NW 00:57:52 21° W 00:57:52 21° W visible
24 Jun 3.7 23:32:15 10° N 23:36:32 55° E 23:36:39 55° E visible
25 Jun 6.0 01:12:10 10° WNW 01:13:42 12° W 01:13:42 12° W visible
25 Jun 3.4 23:48:04 10° N 23:52:27 79° W 23:52:31 79° WSW visible
26 Jun 5.4 22:27:33 10° NNE 22:30:18 16° ENE 22:31:19 15° E visible
27 Jun 4.3 00:04:09 10° NNW 00:08:16 42° W 00:08:23 41° W visible
27 Jun 4.7 22:42:37 10° NNE 22:46:24 28° ENE 22:47:13 26° E visible
28 Jun 5.2 00:20:33 10° NW 00:24:00 23° W 00:24:16 23° W visible
28 Jun 3.8 22:58:08 10° N 23:02:24 50° E 23:03:07 45° ESE visible
29 Jun 5.9 00:37:38 10° WNW 00:39:40 13° W 00:40:10 13° W visible
29 Jun 3.5 23:13:55 10° N 23:18:19 86° W 23:19:01 63° S visible
30 Jun 5.5 21:53:35 10° NE 21:56:08 15° ENE 21:57:54 12° E visible
30 Jun 4.2 23:29:57 10° NNW 23:34:09 46° W 23:34:57 41° SW visible
